Location: Asheville, NC
(35.6000°N, 82.5500°W)
Time: 00:26:14
(UTC-05:00)

Hubble Space Telescope - Pass Details

Date: 08 October 2017
Orbit: 537 x 541 km, 28.5° (Epoch: 24 November)

Event Time Altitude Azimuth Distance (km) Brightness Sun altitude
Exits shadow 07:02:33 - 250° (WSW) 2,102 3.2 -6.6°
Reaches altitude 10° 07:03:37 10° 241° (WSW) 1,786 2.9 -6.4°
Maximum altitude 07:06:31 19° 196° (SSW) 1,329 2.7 -5.8°
Drops below altitude 10° 07:09:25 10° 151° (SSE) 1,783 3.9 -5.2°
Sets 07:12:12 0° 133° (SE) 2,673 5.2 -4.6°
